{"data":{"norad_id":62469,"epoch":"2026-05-24T10:09:21.309120Z","epoch_age_seconds":122113,"freshness":"FRESH","line1":"1 62469U 24254H   26144.42316330  .00109867  00000+0  84749-3 0  9998","line2":"2 62469  43.0015 126.3500 0001746 252.9736 107.0941 15.70866304 81305","mean_motion":15.70866304,"eccentricity":0.0001746,"inclination_deg":43.0015,"raan_deg":126.35,"arg_perigee_deg":252.9736,"mean_anomaly_deg":107.0941,"bstar":0.00084749,"rev_number":8130,"period_min":91.669163463067,"perigee_km":355.24402723138,"apogee_km":357.59573449418,"semimajor_km":6734.5568808628,"source":"CELESTRAK","updated_at":"2026-05-25T13:38:19.692190Z"}}